Location: Pasadena, ca
(34.1243°N, 118.1037°W)
Time: 01:26:35
(UTC-08:00)

Envisat - Pass Details

Date: 12 October 2017
Orbit: 764 x 766 km, 98.2° (Epoch: 12 December)

Event Time Altitude Azimuth Distance (km) Brightness Sun altitude
Exits shadow 21:54:27 11° 310° (NW) 2,233 5.9 -44.0°
Drops below altitude 10° 21:54:43 10° 313° (NW) 2,307 6.0 -44.1°
Sets 21:57:38 0° 330° (NNW) 3,238 6.8 -44.6°
